Change the Weather History Date:

Monday, March 28, 2011

  Actual Average Record
Temperature  
Mean Temperature 30 °F -  
Max Temperature 32 °F 48 °F 77 °F (1998)
Min Temperature 27 °F 35 °F 27 °F (2011)
Degree Days  
Heating Degree Days 36    
Moisture  
Dew Point 17 °F    
Average Humidity 61    
Maximum Humidity 66    
Minimum Humidity 56    
Precipitation  
Precipitation 0.00 in - - ()
Sea Level Pressure  
Sea Level Pressure 30.23 in    
Wind  
Wind Speed 10 mph (North)    
Max Wind Speed 14 mph    
Max Gust Speed -    
Visibility 10 miles    
Events      
Averages and records for this station are not official NWS values.
T = Trace of Precipitation, MM = Missing Value Source: NWS Daily Summary

Daily Weather History Graph

Daily Weather History Graph

Search for Another Location

Airport or City:

Trip Planner

Search our weather history database for the weather conditions in past years. The results will help you decide how hot, cold, wet, or windy it might be!

Date:

Astronomy

Mar. 28, 2011 Rise Set
Actual Time 7:16 AM EDT 7:47 PM EDT
Civil Twilight 6:49 AM EDT 8:15 PM EDT
Nautical Twilight 6:16 AM EDT 8:48 PM EDT
Astronomical Twilight 5:42 AM EDT 9:21 PM EDT
Moon 4:12 AM EDT (3/28) 2:23 PM EDT (3/28)
Length of Visible Light 13h 26m
Length of Day
12h 30m
Waning Crescent, 29% of the Moon is Illuminated
Mar 28
Waning Crescent
Apr 3
New
Apr 11
First Quarter
Apr 17
Full
Apr 24
Last Quarter

Hourly Weather History & Observations

Time (EDT) Temp. Windchill Dew Point Humidity Pressure Visibility Wind Dir Wind Speed Gust Speed Precip Events Conditions
12:53 AM 28.0 °F 18.1 °F 14.0 °F 56% 30.21 in 10.0 mi NNE 11.5 mph - N/A   Clear
1:53 AM 28.0 °F 18.1 °F 16.0 °F 61% 30.21 in 10.0 mi NNE 11.5 mph - N/A   Clear
2:53 AM 27.0 °F 16.7 °F 16.0 °F 63% 30.21 in 10.0 mi NNE 11.5 mph - N/A   Clear
3:53 AM 27.0 °F 16.7 °F 17.1 °F 66% 30.21 in 10.0 mi NNE 11.5 mph - N/A   Partly Cloudy
4:53 AM 27.0 °F 16.1 °F 16.0 °F 63% 30.19 in 10.0 mi NNE 12.7 mph - N/A   Clear
5:53 AM 27.0 °F 15.6 °F 15.1 °F 61% 30.20 in 10.0 mi NNE 13.8 mph - N/A   Clear
6:53 AM 27.0 °F 16.1 °F 16.0 °F 63% 30.22 in 10.0 mi North 12.7 mph - N/A   Partly Cloudy
7:53 AM 28.0 °F 18.6 °F 16.0 °F 61% 30.26 in 10.0 mi NNE 10.4 mph - N/A   Scattered Clouds
8:53 AM 28.9 °F 19.8 °F 16.0 °F 58% 30.27 in 10.0 mi North 10.4 mph - N/A   Mostly Cloudy
9:53 AM 30.0 °F 20.5 °F 17.1 °F 59% 30.26 in 10.0 mi NNE 11.5 mph - N/A   Partly Cloudy
10:53 AM 30.0 °F 21.7 °F 18.0 °F 61% 30.26 in 10.0 mi North 9.2 mph - N/A   Partly Cloudy
11:53 AM 30.9 °F 24.3 °F 18.0 °F 59% 30.27 in 10.0 mi North 6.9 mph - N/A   Partly Cloudy
12:53 PM 32.0 °F 24.8 °F 19.9 °F 61% 30.25 in 10.0 mi North 8.1 mph - N/A   Partly Cloudy
1:53 PM 32.0 °F 24.8 °F 19.9 °F 61% 30.25 in 10.0 mi North 8.1 mph - N/A   Clear
2:53 PM 30.9 °F 22.8 °F 19.0 °F 61% 30.25 in 10.0 mi NNW 9.2 mph - N/A   Clear
3:53 PM 30.9 °F 25.2 °F 19.0 °F 61% 30.24 in 10.0 mi NNW 5.8 mph - N/A   Clear
4:53 PM 32.0 °F 25.6 °F 19.0 °F 59% 30.24 in 10.0 mi NW 6.9 mph - N/A   Clear
5:53 PM 30.9 °F 25.2 °F 18.0 °F 59% 30.24 in 10.0 mi NW 5.8 mph - N/A   Clear
6:53 PM 30.9 °F - 18.0 °F 59% 30.23 in 10.0 mi Calm Calm - N/A   Clear
7:53 PM 28.9 °F 25.2 °F 16.0 °F 58% 30.23 in 10.0 mi NW 3.5 mph - N/A   Clear
8:53 PM 28.9 °F - 16.0 °F 58% 30.22 in 10.0 mi Calm Calm - N/A   Clear
9:53 PM 30.0 °F 25.2 °F 17.1 °F 59% 30.23 in 10.0 mi North 4.6 mph - N/A   Clear
10:53 PM 30.0 °F 21.1 °F 19.9 °F 66% 30.24 in 10.0 mi NNE 10.4 mph - N/A   Partly Cloudy
11:53 PM 30.0 °F 22.4 °F 19.9 °F 66% 30.23 in 10.0 mi NE 8.1 mph - N/A   Partly Cloudy